Naples, Italy

5:53 AM CEST on May 30, 2017 (GMT +0200)
Capodichino Mil

Weather History for LIRN - August, 2012

Change the Weather History Date:

Sunday, August 5, 2012

  Actual Average Record
Temperature  
Mean Temperature 85 °F -  
Max Temperature 95 °F 84 °F 95 °F (2003)
Min Temperature 75 °F 63 °F 66 °F (2005)
Cooling Degree Days 20    
Growing Degree Days 35 (Base 50)    
Moisture  
Dew Point 56 °F    
Average Humidity 39    
Maximum Humidity 65    
Minimum Humidity 18    
Precipitation  
Precipitation 0.00 in 0.06 in - ()
Sea Level Pressure  
Sea Level Pressure 29.93 in    
Wind  
Wind Speed 3 mph ()    
Max Wind Speed 9 mph    
Max Gust Speed -    
Averages and records for this station are not official NWS values.
T = Trace of Precipitation, MM = Missing Value Source: Averaged Metar Reports

Daily Weather History Graph

Daily Weather History Graph

Search for Another Location

Airport or City:

Trip Planner

Search our weather history database for the weather conditions in past years. The results will help you decide how hot, cold, wet, or windy it might be!

Date:

Astronomy

Aug. 05, 2012 Rise Set
Actual Time 6:03 AM CEST 8:13 PM CEST
Civil Twilight 5:32 AM CEST 8:43 PM CEST
Nautical Twilight 4:55 AM CEST 9:21 PM CEST
Astronomical Twilight 4:14 AM CEST 10:01 PM CEST
Moon 9:41 PM CEST (8/5) 9:36 AM CEST (8/5)
Length of Visible Light 15h 11m
Length of Day
14h 10m
Waning Gibbous, 88% of the Moon is Illuminated
Aug 5
Waning Gibbous
Aug 9
Last Quarter
Aug 17
New
Aug 24
First Quarter
Aug 31
Full

Hourly Weather History & Observations

Time (CEST) Temp. Heat Index Dew Point Humidity Pressure Visibility Wind Dir Wind Speed Gust Speed Precip Events Conditions
12:20 AM 78.8 °F - 64.4 °F 61% 29.92 in - NE 4.6 mph - N/A   Clear
12:50 AM 78.8 °F - 64.4 °F 61% 29.92 in - North 2.3 mph - N/A   Clear
1:20 AM 78.8 °F - 64.4 °F 61% 29.92 in - NNW 3.5 mph - N/A   Clear
1:50 AM 78.8 °F - 62.6 °F 57% 29.92 in - NNW 3.5 mph - N/A   Clear
2:20 AM 77.0 °F - 62.6 °F 61% 29.92 in - Variable 2.3 mph - N/A   Clear
2:50 AM 77.0 °F - 62.6 °F 61% 29.92 in - NNW 2.3 mph - N/A   Clear
3:20 AM 75.2 °F - 62.6 °F 65% 29.92 in - Variable 1.2 mph - N/A   Clear
3:50 AM 77.0 °F - 60.8 °F 57% 29.92 in - ENE 2.3 mph - N/A   Clear
4:20 AM 75.2 °F - 60.8 °F 61% 29.92 in - NNE 3.5 mph - N/A   Clear
4:50 AM 75.2 °F - 60.8 °F 61% 29.92 in - NNE 3.5 mph - N/A   Clear
5:20 AM 75.2 °F - 60.8 °F 61% 29.92 in - NNE 2.3 mph - N/A   Clear
5:50 AM 75.2 °F - 59.0 °F 57% 29.92 in - North 2.3 mph - N/A   Clear
6:20 AM 75.2 °F - 59.0 °F 57% 29.92 in - Variable 2.3 mph - N/A   Clear
6:50 AM 77.0 °F - 60.8 °F 57% 29.92 in - WNW 2.3 mph - N/A   Clear
7:20 AM 80.6 °F 81.5 °F 60.8 °F 51% 29.92 in - Calm Calm - N/A   Clear
7:50 AM 82.4 °F 82.5 °F 59.0 °F 45% 29.92 in - Variable 2.3 mph - N/A   Clear
8:20 AM 82.4 °F 83.4 °F 62.6 °F 51% 29.92 in - Variable 2.3 mph - N/A   Clear
8:50 AM 86.0 °F 86.1 °F 60.8 °F 43% 29.92 in - Variable 1.2 mph - N/A   Clear
9:20 AM 89.6 °F 89.5 °F 60.8 °F 38% 29.95 in - Variable 1.2 mph - N/A   Clear
9:50 AM 91.4 °F 89.9 °F 57.2 °F 31% 29.95 in - Variable 2.3 mph - N/A   Clear
10:20 AM 91.4 °F 89.1 °F 53.6 °F 28% 29.95 in - Variable 2.3 mph - N/A   Clear
10:50 AM 93.2 °F - 50.0 °F 23% 29.95 in - South 3.5 mph - N/A   Clear
11:20 AM 93.2 °F - 48.2 °F 21% 29.95 in - SSW 5.8 mph - N/A   Clear
11:50 AM 95.0 °F - 50.0 °F 22% 29.95 in - South 5.8 mph - N/A   Clear
12:20 PM 95.0 °F - 44.6 °F 18% 29.95 in - SSW 5.8 mph - N/A   Clear
12:50 PM 95.0 °F - 46.4 °F 19% 29.95 in - South 6.9 mph - N/A   Clear
1:20 PM 95.0 °F - 50.0 °F 22% 29.95 in - SW 6.9 mph - N/A   Clear
1:50 PM 95.0 °F - 48.2 °F 20% 29.95 in - SSW 8.1 mph - N/A   Clear
2:20 PM 95.0 °F - 50.0 °F 22% 29.95 in - SSW 8.1 mph - N/A   Clear
2:50 PM 95.0 °F - 51.8 °F 23% 29.95 in - South 8.1 mph - N/A   Clear
3:20 PM 95.0 °F 92.7 °F 53.6 °F 25% 29.95 in - SSW 8.1 mph - N/A   Clear
3:50 PM 95.0 °F - 48.2 °F 20% 29.95 in - SSW 9.2 mph - N/A   Clear
4:20 PM 93.2 °F - 48.2 °F 21% 29.92 in - SSW 8.1 mph - N/A   Clear
4:50 PM 93.2 °F - 48.2 °F 21% 29.92 in - South 9.2 mph - N/A   Clear
5:20 PM 93.2 °F - 48.2 °F 21% 29.92 in - South 5.8 mph - N/A   Clear
5:50 PM 91.4 °F - 46.4 °F 21% 29.92 in - South 4.6 mph - N/A   Clear
6:20 PM 91.4 °F - 48.2 °F 23% 29.92 in - South 5.8 mph - N/A   Clear
6:50 PM 89.6 °F 87.3 °F 53.6 °F 29% 29.92 in - South 4.6 mph - N/A   Clear
7:20 PM 89.6 °F 87.3 °F 53.6 °F 29% 29.92 in - South 3.5 mph - N/A   Clear
7:50 PM 87.8 °F 85.7 °F 53.6 °F 31% 29.92 in - South 3.5 mph - N/A   Clear
8:20 PM 86.0 °F 84.5 °F 55.4 °F 35% 29.92 in - South 2.3 mph - N/A   Clear
8:50 PM 86.0 °F 84.5 °F 55.4 °F 35% 29.95 in - WSW 2.3 mph - N/A   Clear
9:20 PM 86.0 °F 84.5 °F 55.4 °F 35% 29.95 in - South 3.5 mph - N/A   Clear
9:50 PM 84.2 °F 83.5 °F 57.2 °F 40% 29.95 in - Variable 2.3 mph - N/A   Clear
10:20 PM 84.2 °F 83.8 °F 59.0 °F 42% 29.95 in - ENE 1.2 mph - N/A   Clear
10:50 PM 84.2 °F 83.8 °F 59.0 °F 42% 29.95 in - Variable 1.2 mph - N/A   Clear
11:20 PM 82.4 °F 82.5 °F 59.0 °F 45% 29.95 in - Calm Calm - N/A   Clear
11:50 PM 82.4 °F 82.0 °F 57.2 °F 42% 29.95 in - ENE 3.5 mph - N/A   Clear